Tracking 18852 objects as of 23-Nov-2017
HD Live streaming from Space Station
objects crossing your sky now

FENGYUN 1C DEB

Track FENGYUN 1C DEB now!
10-day predictions


NORAD ID: 32212
Int'l Code: 1999-025CVJ
Perigee: 680.8 km
Apogee: 899.0 km
Inclination: 99.6 °
Period: 100.5 minutes
Semi major axis: 7160 km
RCS: 0.007 m2 (small)
Launch date: May 10, 1999
Source: People's Republic of China (PRC)
Launch site: Taiyaun Space Center, China (TSC)

Note: This is SATELLITE DEBRIS
aabbcc
Your satellite tracking list
Your tracking list is empty




NASA's NSSDC Master Catalog

Two Line Element Set (TLE):
1 32212U 99025CVJ 17327.20784076  .00000326  00000-0  12410-3 0  9991
2 32212  99.5740  55.7894 0152365 244.1291 144.5246 14.32690427539325
Source of the keplerian elements: AFSPC